Terminal Aerodrome Forecast
Issued by NWS

Home | Current Version | Previous Version | Text Only | Print | Product List | Glossary On
Versions: 1 2 3 4 5 6 7 8 9 10 11 12 13
433
FTUS45 KVEF 240536
TAFHND
TAF
KHND 240536Z 2406/2506 20008KT P6SM SKC
     FM241500 VRB05KT P6SM SKC
     FM242000 22010G16KT P6SM FEW250
     FM250300 22008KT P6SM SKC=

USA.gov is the U.S. government's official web portal to all federal, state and local government web resources and services.